Tracking 30105 objects as of 24-Jan-2025
HD Live streaming from Space Station
objects crossing your sky now

STARLINK-5369

Track STARLINK-5369 now!
10-day predictions
STARLINK-5369 is classified as:


NORAD ID: 54837
Int'l Code: 2022-177T
Perigee: 565.1 km
Apogee: 567.3 km
Inclination: 43.0 °
Period: 95.8 minutes
Semi major axis: 6937 km
RCS: Unknown
Launch date: December 28, 2022
Source: United States (US)
Launch site: AIR FORCE EASTERN TEST RANGE (AFETR)
Your satellite tracking list
Your tracking list is empty




NASA's NSSDC Master Catalog

Two Line Element Set (TLE):
1 54837U 22177T   25023.89461492 -.00003278  00000-0 -22767-3 0  9990
2 54837  43.0028 199.8587 0001636 259.1173 100.9485 15.02538961115315
Source of the keplerian elements: AFSPC